Location: Burgberg
(50.1428°N, 11.0671°E)
Time: 17:07:56
(UTC+00:00)

NOSS 3-4 (A) - Pass Details

Date: 26 January 2020
Orbit: 901 x 1312 km, 63.4° (Epoch: 06 February)

Event Time Altitude Azimuth Distance (km) Brightness Sun altitude
Exits shadow 05:11:04 14° 234° (SW) 2,302 5.1 -17.0°
Maximum altitude 05:16:16 71° 317° (NW) 1,006 3.4 -16.2°
Drops below altitude 10° 05:22:46 10° 42° (NE) 2,801 6.3 -15.2°
Sets 05:25:30 0° 45° (NE) 3,815 7.1 -14.8°
